Location: Berlin
(42.3812°N, 71.6370°W)
Time: 23:29:36
(UTC+00:00)

ATLAS 3B R/B - Pass Details

Date: 15 November 2025
Orbit: 935 x 1258 km, 63.8° (Epoch: 09 December)

Event Time Altitude Azimuth Distance (km) Brightness Sun altitude
Rises 08:53:36 0° 187° (S) 3,961 5.6 -30.3°
Reaches altitude 10° 08:56:22 10° 181° (S) 3,050 5.0 -29.8°
Maximum altitude 09:03:11 42° 113° (ESE) 1,663 4.0 -28.5°
Drops below altitude 10° 09:10:22 10° 46° (NE) 3,226 5.7 -27.2°
Sets 09:13:22 0° 40° (NE) 4,211 6.3 -26.6°
